Weather History for Kenai, AK

Change the Weather History Date:

Saturday, February 12, 2011

  Actual Average Record
Temperature  
Mean Temperature 0 °F -  
Max Temperature 14 °F 25 °F 44 °F (1968)
Min Temperature -14 °F 8 °F -37 °F (1956)
Degree Days  
Heating Degree Days 65    
Moisture  
Dew Point -10 °F    
Average Humidity 70    
Maximum Humidity 79    
Minimum Humidity 52    
Precipitation  
Precipitation 0.00 in - - ()
Sea Level Pressure  
Sea Level Pressure 29.18 in    
Wind  
Wind Speed 2 mph (NE)    
Max Wind Speed 5 mph    
Max Gust Speed -    
Visibility 10 miles    
Events      
Averages and records for this station are not official NWS values.
T = Trace of Precipitation, MM = Missing Value Source: NWS Daily Summary

Daily Weather History Graph

Daily Weather History Graph

Search for Another Location

Airport:

Trip Planner

Search our weather history database for the weather conditions in past years. The results will help you decide how hot, cold, wet, or windy it might be!

Date:

Astronomy

Feb. 12, 2011 Rise Set
Actual Time 8:53 AM AKST 5:46 PM AKST
Civil Twilight 8:08 AM AKST 6:31 PM AKST
Nautical Twilight 7:18 AM AKST 7:21 PM AKST
Astronomical Twilight 6:29 AM AKST 8:10 PM AKST
Moon 10:47 AM AKST (2/12) 5:25 AM AKST (2/12)
Length of Visible Light 10h 23m
Length of Day
8h 52m
Waxing Gibbous, 66% of the Moon is Illuminated
Feb 12
Waxing Gibbous
Feb 17
Full
Feb 24
Last Quarter
Mar 4
New
Mar 12
First Quarter

Hourly Weather History & Observations

Time (AKST) Temp. Windchill Dew Point Humidity Pressure Visibility Wind Dir Wind Speed Gust Speed Precip Events Conditions
12:53 AM -4.0 °F -14.6 °F -9.9 °F 76% 29.30 in 10.0 mi North 4.6 mph - N/A   Clear
1:53 AM -2.9 °F - -8.0 °F 79% 29.29 in 10.0 mi Calm Calm - N/A   Clear
2:53 AM -8.0 °F -16.9 °F -13.0 °F 79% 29.28 in 10.0 mi NE 3.5 mph - N/A   Clear
3:53 AM -9.0 °F - -16.1 °F 71% 29.27 in 10.0 mi Calm Calm - N/A   Clear
4:53 AM -9.0 °F -20.4 °F -14.1 °F 79% 29.25 in 10.0 mi NNE 4.6 mph - N/A   Clear
5:53 AM -11.0 °F - -17.0 °F 75% 29.24 in 10.0 mi Calm Calm - N/A   Clear
6:53 AM -9.9 °F -21.5 °F -18.0 °F 68% 29.22 in 10.0 mi East 4.6 mph - N/A   Clear
7:53 AM -13.0 °F - -20.9 °F 68% 29.21 in 10.0 mi Calm Calm - N/A   Clear
8:53 AM -11.9 °F - -18.9 °F 71% 29.19 in 10.0 mi Calm Calm - N/A   Clear
9:53 AM -14.1 °F - -20.9 °F 71% 29.19 in 10.0 mi Calm Calm - N/A   Clear
10:53 AM -7.1 °F - -15.0 °F 68% 29.19 in 10.0 mi Calm Calm - N/A   Clear
11:53 AM 1.0 °F - -5.1 °F 75% 29.18 in 10.0 mi Calm Calm - N/A   Clear
12:53 PM 10.9 °F - 1.0 °F 64% 29.16 in 10.0 mi Calm Calm - N/A   Clear
1:53 PM 12.0 °F 5.9 °F -0.9 °F 56% 29.14 in 10.0 mi South 3.5 mph - N/A   Clear
2:53 PM 14.0 °F - -0.9 °F 52% 29.13 in 10.0 mi Calm Calm - N/A   Clear
3:53 PM 12.9 °F - 1.0 °F 59% 29.12 in 10.0 mi Calm Calm - N/A   Clear
4:53 PM 14.0 °F - 3.0 °F 62% 29.11 in 10.0 mi Calm Calm - N/A   Clear
5:53 PM 7.0 °F - -0.9 °F 70% 29.11 in 10.0 mi Calm Calm - N/A   Clear
6:53 PM 6.1 °F - -2.0 °F 69% 29.12 in 10.0 mi Calm Calm - N/A   Clear
7:53 PM -0.9 °F -8.9 °F -6.0 °F 79% 29.12 in 10.0 mi West 3.5 mph - N/A   Clear
8:53 PM -2.9 °F - -9.9 °F 72% 29.12 in 10.0 mi Calm Calm - N/A   Clear
9:53 PM -9.0 °F - -15.0 °F 75% 29.13 in 10.0 mi Calm Calm - N/A   Clear
10:53 PM -11.0 °F -22.8 °F -16.1 °F 78% 29.14 in 10.0 mi ENE 4.6 mph - N/A   Clear
11:53 PM -9.9 °F -19.2 °F -17.0 °F 71% 29.15 in 10.0 mi West 3.5 mph - N/A   Clear